Location: Newark
(47.5833°N, 8.1500°E)
Time: 10:12:57
(UTC+00:00)

Altair - Pass Details

Date: 05 November 2020
Orbit: 1502 x 1682 km, 47.2° (Epoch: 25 November)

Event Time Altitude Azimuth Distance (km) Brightness Sun altitude
Exits shadow 02:44:00 55° 165° (SSE) 1,773 7.6 -36.1°
Maximum altitude 02:44:40 56° 149° (SSE) 1,759 7.7 -36.0°
Drops below altitude 10° 02:53:46 10° 75° (ENE) 3,746 10.3 -34.5°
Sets 02:56:56 0° 71° (ENE) 4,755 11.1 -34.0°
